| time (UTC) | temp C | wind direction | speed KPH | gust KPH | rain 1hr cm | rain 24hr cm | rain mn cm | humidity % | barometer mb |
| 20260510070024 | 22 | 3.2 | 9.7 | 0.00 | 0.00 | 0.00 | 99 | 1010.4 | |
| 20260510065508 | 22 | 1.6 | 4.8 | 0.00 | 0.00 | 0.00 | 99 | 1010.4 | |
| 20260510065002 | 23 | 3.2 | 8.0 | 0.00 | 0.00 | 0.00 | 99 | 1010.3 | |
| 20260510064456 | 25 | 1.6 | 6.4 | 0.00 | 0.00 | 0.00 | 99 | 1010.2 | |
| 20260510063951 | 25 | 0.0 | 1.6 | 0.00 | 0.00 | 0.00 | 99 | 1010.2 | |
| 20260510063445 | 23 | 0.0 | 0.0 | 0.00 | 0.00 | 0.00 | 99 | 1010.2 | |
| 20260510062948 | 22 | 1.6 | 3.2 | 0.00 | 0.00 | 0.00 | 99 | 1010.2 | |
| 20260510062433 | 20 | 0.0 | 0.0 | 0.00 | 0.00 | 0.00 | 99 | 1010.1 | |
| 20260510061926 | 16 | 0.0 | 0.0 | 0.00 | 0.00 | 0.00 | 99 | 1010.1 | |
| 20260510061421 | 15 | 0.0 | 0.0 | 0.00 | 0.00 | 0.00 | 99 | 1010.0 | |
| 20260510060915 | 15 | 0.0 | 0.0 | 0.00 | 0.00 | 0.00 | 99 | 1010.0 | |
| 20260510060409 | 15 | 0.0 | 1.6 | 0.00 | 0.00 | 0.00 | 99 | 1010.0 | |
| 20260510055912 | 15 | 0.0 | 0.0 | 0.00 | 0.00 | 0.00 | 99 | 1010.0 | |
| 20260510055356 | 15 | 0.0 | 0.0 | 0.00 | 0.00 | 0.00 | 99 | 1009.9 | |
| 20260510054850 | 14 | 0.0 | 0.0 | 0.00 | 0.00 | 0.00 | 99 | 1010.0 | |
| 20260510054344 | 14 | 0.0 | 0.0 | 0.00 | 0.00 | 0.00 | 99 | 1009.9 | |
| 20260510053838 | 14 | 0.0 | 0.0 | 0.00 | 0.00 | 0.00 | 99 | 1009.9 | |
| 20260510053333 | 14 | 0.0 | 0.0 | 0.00 | 0.00 | 0.00 | 99 | 1010.0 | |
| 20260510052835 | 14 | 0.0 | 0.0 | 0.00 | 0.00 | 0.00 | 99 | 1009.9 | |
| 20260510052321 | 14 | 0.0 | 0.0 | 0.00 | 0.00 | 0.00 | 99 | 1009.9 | |
| 20260510051815 | 13 | 0.0 | 0.0 | 0.00 | 0.00 | 0.00 | 99 | 1009.9 | |
| 20260510051309 | 13 | 0.0 | 0.0 | 0.00 | 0.00 | 0.00 | 99 | 1009.9 | |
| 20260510050803 | 12 | 0.0 | 0.0 | 0.00 | 0.00 | 0.00 | 99 | 1009.9 | |
| 20260510050257 | 12 | 0.0 | 0.0 | 0.00 | 0.00 | 0.00 | 99 | 1009.8 | |
| 20260510045758 | 12 | 0.0 | 0.0 | 0.00 | 0.00 | 0.00 | 99 | 1009.9 | |
| 20260510045244 | 12 | 0.0 | 0.0 | 0.00 | 0.00 | 0.00 | 99 | 1009.8 | |
| 20260510044738 | 12 | 0.0 | 0.0 | 0.00 | 0.00 | 0.00 | 99 | 1009.9 | |
| 20260510044232 | 12 | 0.0 | 0.0 | 0.00 | 0.00 | 0.00 | 99 | 1009.8 | |
| 20260510043726 | 12 | 0.0 | 0.0 | 0.00 | 0.00 | 0.00 | 99 | 1009.9 | |
| 20260510043220 | 12 | 0.0 | 0.0 | 0.00 | 0.00 | 0.00 | 99 | 1009.8 | |
| 20260510042723 | 12 | 0.0 | 0.0 | 0.00 | 0.00 | 0.00 | 99 | 1009.7 | |
| 20260510042207 | 12 | 0.0 | 0.0 | 0.00 | 0.00 | 0.00 | 99 | 1009.8 | |
| 20260510041701 | 12 | 0.0 | 0.0 | 0.00 | 0.00 | 0.00 | 99 | 1009.7 | |
| 20260510041156 | 12 | 0.0 | 0.0 | 0.00 | 0.00 | 0.00 | 99 | 1009.7 | |
| 20260510040650 | 12 | 0.0 | 0.0 | 0.00 | 0.00 | 0.00 | 99 | 1009.7 | |
| 20260510040144 | 13 | 0.0 | 0.0 | 0.00 | 0.00 | 0.00 | 99 | 1009.7 | |
| 20260510035648 | 13 | 0.0 | 0.0 | 0.00 | 0.00 | 0.00 | 99 | 1009.8 | |
| 20260510035133 | 13 | 0.0 | 0.0 | 0.00 | 0.00 | 0.00 | 99 | 1009.8 | |
| 20260510034627 | 13 | 0.0 | 0.0 | 0.00 | 0.00 | 0.00 | 99 | 1009.8 | |
| 20260510034121 | 13 | 0.0 | 0.0 | 0.00 | 0.00 | 0.00 | 99 | 1009.8 | |
| 20260510033616 | 13 | 0.0 | 0.0 | 0.00 | 0.00 | 0.00 | 99 | 1009.8 | |
| 20260510033110 | 13 | 0.0 | 0.0 | 0.00 | 0.00 | 0.00 | 99 | 1009.8 | |
| 20260510032612 | 13 | 0.0 | 0.0 | 0.00 | 0.00 | 0.00 | 99 | 1009.8 | |
| 20260510032058 | 13 | 0.0 | 0.0 | 0.00 | 0.00 | 0.00 | 99 | 1009.9 | |
| 20260510031552 | 13 | 0.0 | 0.0 | 0.00 | 0.00 | 0.00 | 99 | 1009.9 | |
| 20260510031046 | 13 | 0.0 | 0.0 | 0.00 | 0.00 | 0.00 | 99 | 1009.9 | |
| 20260510030540 | 13 | 0.0 | 0.0 | 0.00 | 0.00 | 0.00 | 99 | 1009.9 | |
| 20260510030034 | 13 | 0.0 | 0.0 | 0.00 | 0.00 | 0.00 | 99 | 1010.0 | |
| 20260510025538 | 13 | 0.0 | 0.0 | 0.00 | 0.00 | 0.00 | 99 | 1010.0 | |
| 20260510025024 | 13 | 0.0 | 0.0 | 0.00 | 0.00 | 0.00 | 99 | 1010.0 | |
| 20260510024518 | 13 | 0.0 | 0.0 | 0.00 | 0.00 | 0.00 | 99 | 1010.1 | |
| 20260510024012 | 13 | 0.0 | 0.0 | 0.00 | 0.00 | 0.00 | 99 | 1010.1 | |
| 20260510023506 | 13 | 0.0 | 0.0 | 0.00 | 0.00 | 0.00 | 99 | 1010.1 | |
| 20260510023000 | 13 | 0.0 | 0.0 | 0.00 | 0.00 | 0.00 | 99 | 1010.0 | |
| 20260510022502 | 13 | 0.0 | 0.0 | 0.00 | 0.00 | 0.00 | 99 | 1010.1 | |
| 20260510021947 | 13 | 0.0 | 0.0 | 0.00 | 0.00 | 0.00 | 99 | 1010.1 | |
| 20260510021441 | 13 | 0.0 | 0.0 | 0.00 | 0.00 | 0.00 | 99 | 1010.1 | |
| 20260510020936 | 13 | 0.0 | 0.0 | 0.00 | 0.00 | 0.00 | 99 | 1010.2 | |
| 20260510020430 | 13 | 0.0 | 0.0 | 0.00 | 0.00 | 0.00 | 99 | 1010.2 | |
| 20260510015924 | 13 | 0.0 | 0.0 | 0.00 | 0.00 | 0.00 | 99 | 1010.2 | |
| 20260510015425 | 13 | 0.0 | 0.0 | 0.00 | 0.00 | 0.00 | 99 | 1010.3 | |
| 20260510014910 | 13 | 0.0 | 0.0 | 0.00 | 0.00 | 0.00 | 99 | 1010.3 | |
| 20260510014405 | 13 | 0.0 | 0.0 | 0.00 | 0.00 | 0.00 | 99 | 1010.2 | |
| 20260510013859 | 13 | 0.0 | 0.0 | 0.00 | 0.00 | 0.00 | 99 | 1010.2 | |
| 20260510013353 | 13 | 0.0 | 0.0 | 0.00 | 0.00 | 0.00 | 99 | 1010.3 | |
| 20260510012847 | 13 | 0.0 | 0.0 | 0.00 | 0.00 | 0.00 | 99 | 1010.2 | |
| 20260510012349 | 13 | 0.0 | 0.0 | 0.00 | 0.00 | 0.00 | 99 | 1010.3 | |
| 20260510011835 | 13 | 0.0 | 0.0 | 0.00 | 0.00 | 0.00 | 99 | 1010.3 | |
| 20260510011329 | 13 | 0.0 | 0.0 | 0.00 | 0.00 | 0.00 | 99 | 1010.2 | |
| 20260510010823 | 13 | 0.0 | 0.0 | 0.00 | 0.00 | 0.00 | 99 | 1010.3 | |
| 20260510010317 | 13 | 0.0 | 0.0 | 0.00 | 0.00 | 0.00 | 99 | 1010.3 | |
| 20260510005810 | 13 | 0.0 | 0.0 | 0.00 | 0.00 | 0.00 | 99 | 1010.4 | |
| 20260510005312 | 13 | 0.0 | 0.0 | 0.00 | 0.00 | 0.00 | 99 | 1010.4 | |
| 20260510004757 | 13 | 0.0 | 0.0 | 0.00 | 0.00 | 0.00 | 99 | 1010.5 | |
| 20260510004252 | 13 | 0.0 | 0.0 | 0.00 | 0.00 | 0.00 | 99 | 1010.4 | |
| 20260510003746 | 13 | 0.0 | 0.0 | 0.00 | 0.00 | 0.00 | 99 | 1010.4 | |
| 20260510003240 | 13 | 0.0 | 0.0 | 0.00 | 0.00 | 0.00 | 99 | 1010.4 | |
| 20260510002734 | 13 | 0.0 | 0.0 | 0.00 | 0.00 | 0.00 | 99 | 1010.4 | |
| 20260510002236 | 13 | 0.0 | 0.0 | 0.00 | 0.00 | 0.00 | 99 | 1010.4 | |
| 20260510001722 | 13 | 0.0 | 0.0 | 0.00 | 0.00 | 0.00 | 99 | 1010.3 | |
| 20260510001216 | 13 | 0.0 | 0.0 | 0.00 | 0.00 | 0.00 | 99 | 1010.3 | |
| 20260510000710 | 14 | 0.0 | 0.0 | 0.00 | 0.00 | 0.00 | 99 | 1010.2 | |
| 20260510000204 | 14 | 0.0 | 0.0 | 0.00 | 0.00 | 0.00 | 99 | 1010.3 | |
| 20260509235659 | 14 | 0.0 | 0.0 | 0.00 | 0.00 | 0.05 | 99 | 1010.3 | |
| 20260509235202 | 14 | 0.0 | 0.0 | 0.00 | 0.00 | 0.05 | 99 | 1010.3 | |
| 20260509234647 | 14 | 0.0 | 0.0 | 0.00 | 0.00 | 0.05 | 99 | 1010.3 | |
| 20260509234141 | 14 | 0.0 | 0.0 | 0.00 | 0.00 | 0.05 | 99 | 1010.4 | |
| 20260509233635 | 14 | 0.0 | 0.0 | 0.00 | 0.00 | 0.05 | 99 | 1010.5 | |
| 20260509233129 | 14 | 0.0 | 0.0 | 0.00 | 0.00 | 0.05 | 99 | 1010.5 | |
| 20260509232623 | 14 | 0.0 | 0.0 | 0.00 | 0.00 | 0.05 | 99 | 1010.6 | |
| 20260509232125 | 14 | 0.0 | 0.0 | 0.00 | 0.00 | 0.05 | 99 | 1010.6 | |
| 20260509231104 | 15 | 0.0 | 1.6 | 0.00 | 0.00 | 0.05 | 99 | 1010.7 | |
| 20260509230558 | 15 | 0.0 | 0.0 | 0.00 | 0.00 | 0.05 | 99 | 1010.6 | |
| 20260509230050 | 15 | 0.0 | 1.6 | 0.00 | 0.00 | 0.05 | 99 | 1010.6 | |
| 20260509225544 | 15 | 0.0 | 0.0 | 0.00 | 0.00 | 0.05 | 99 | 1010.8 | |
| 20260509225046 | 15 | 0.0 | 1.6 | 0.00 | 0.00 | 0.05 | 99 | 1010.8 | |
| 20260509224532 | 15 | 0.0 | 0.0 | 0.00 | 0.00 | 0.05 | 99 | 1010.7 | |
| 20260509224026 | 15 | 1.6 | 4.8 | 0.00 | 0.00 | 0.05 | 99 | 1010.8 | |
| 20260509223520 | 15 | 1.6 | 6.4 | 0.00 | 0.00 | 0.05 | 99 | 1010.9 | |
| 20260509223014 | 16 | 0.0 | 1.6 | 0.00 | 0.00 | 0.05 | 99 | 1010.8 | |
| 20260509222508 | 16 | 0.0 | 1.6 | 0.00 | 0.00 | 0.05 | 99 | 1010.8 | |
| 20260509222011 | 16 | 1.6 | 4.8 | 0.00 | 0.00 | 0.05 | 99 | 1010.8 | |
| 20260509221456 | 16 | 3.2 | 9.7 | 0.00 | 0.00 | 0.05 | 99 | 1010.8 | |
| 20260509220950 | 16 | 3.2 | 8.0 | 0.00 | 0.00 | 0.05 | 99 | 1010.9 | |
| 20260509220444 | 16 | 1.6 | 3.2 | 0.00 | 0.00 | 0.05 | 99 | 1010.9 | |
| 20260509215938 | 16 | 3.2 | 8.0 | 0.00 | 0.00 | 0.05 | 99 | 1010.9 | |
| 20260509215431 | 16 | 4.8 | 12.9 | 0.00 | 0.00 | 0.05 | 99 | 1010.9 | |
| 20260509214934 | 17 | 3.2 | 11.3 | 0.00 | 0.00 | 0.05 | 99 | 1010.9 | |
| 20260509214419 | 17 | 4.8 | 12.9 | 0.00 | 0.00 | 0.05 | 99 | 1010.9 | |
| 20260509213913 | 17 | 3.2 | 11.3 | 0.00 | 0.00 | 0.05 | 99 | 1011.0 | |
| 20260509213407 | 17 | 4.8 | 12.9 | 0.00 | 0.00 | 0.05 | 99 | 1010.9 | |
| 20260509212902 | 17 | 3.2 | 8.0 | 0.00 | 0.00 | 0.05 | 99 | 1010.8 | |
| 20260509212356 | 17 | 4.8 | 14.5 | 0.00 | 0.00 | 0.05 | 99 | 1010.8 | |
| 20260509211858 | 17 | 4.8 | 12.9 | 0.00 | 0.00 | 0.05 | 99 | 1010.9 | |
| 20260509211344 | 17 | 3.2 | 11.3 | 0.00 | 0.00 | 0.05 | 99 | 1011.0 | |
| 20260509210838 | 17 | 4.8 | 16.1 | 0.00 | 0.00 | 0.05 | 99 | 1011.1 | |
| 20260509210332 | 17 | 4.8 | 16.1 | 0.00 | 0.00 | 0.05 | 99 | 1011.4 | |
| 20260509205825 | 17 | 3.2 | 8.0 | 0.00 | 0.00 | 0.05 | 99 | 1011.5 | |
| 20260509205319 | 17 | 3.2 | 11.3 | 0.00 | 0.00 | 0.05 | 99 | 1011.5 | |
| 20260509204822 | 17 | 3.2 | 11.3 | 0.00 | 0.00 | 0.05 | 99 | 1011.3 | |
| 20260509204307 | 17 | 1.6 | 4.8 | 0.00 | 0.00 | 0.05 | 99 | 1011.3 | |
| 20260509203801 | 17 | 3.2 | 9.7 | 0.00 | 0.00 | 0.05 | 99 | 1011.2 | |
| 20260509203256 | 17 | 8.0 | 24.1 | 0.00 | 0.00 | 0.05 | 99 | 1011.1 | |
| 20260509202750 | 17 | 0.0 | 1.6 | 0.00 | 0.00 | 0.05 | 99 | 1011.0 | |
| 20260509202244 | 17 | 0.0 | 0.0 | 0.00 | 0.00 | 0.05 | 99 | 1011.0 | |
| 20260509201746 | 17 | 1.6 | 3.2 | 0.00 | 0.00 | 0.05 | 99 | 1010.9 | |
| 20260509201231 | 17 | 0.0 | 0.0 | 0.00 | 0.00 | 0.05 | 99 | 1010.8 | |
| 20260509200725 | 17 | 0.0 | 0.0 | 0.00 | 0.00 | 0.05 | 99 | 1010.8 | |
| 20260509200219 | 17 | 0.0 | 0.0 | 0.00 | 0.00 | 0.05 | 99 | 1010.8 | |
| 20260509195713 | 17 | 0.0 | 0.0 | 0.00 | 0.00 | 0.05 | 99 | 1010.8 | |
| 20260509195207 | 18 | 0.0 | 0.0 | 0.00 | 0.00 | 0.05 | 99 | 1010.8 | |
| 20260509194709 | 18 | 0.0 | 0.0 | 0.00 | 0.00 | 0.05 | 99 | 1010.8 | |
| 20260509194154 | 18 | 0.0 | 0.0 | 0.00 | 0.00 | 0.05 | 99 | 1010.8 | |
| 20260509193648 | 18 | 0.0 | 0.0 | 0.00 | 0.00 | 0.05 | 99 | 1010.7 | |
| 20260509193142 | 18 | 0.0 | 0.0 | 0.00 | 0.00 | 0.05 | 99 | 1010.6 | |
| 20260509192636 | 18 | 0.0 | 0.0 | 0.00 | 0.00 | 0.05 | 99 | 1010.6 | |
| 20260509192130 | 19 | 0.0 | 0.0 | 0.00 | 0.00 | 0.05 | 99 | 1010.5 | |
| 20260509191632 | 19 | 0.0 | 0.0 | 0.00 | 0.00 | 0.05 | 99 | 1010.4 | |
| 20260509191117 | 19 | 0.0 | 0.0 | 0.00 | 0.00 | 0.05 | 99 | 1010.4 | |
| 20260509190611 | 20 | 0.0 | 0.0 | 0.00 | 0.00 | 0.05 | 99 | 1010.3 | |
| 20260509190106 | 20 | 0.0 | 0.0 | 0.00 | 0.00 | 0.05 | 99 | 1010.3 | |
| 20260509185559 | 20 | 0.0 | 0.0 | 0.00 | 0.00 | 0.05 | 99 | 1010.3 | |
| 20260509185053 | 20 | 0.0 | 1.6 | 0.00 | 0.00 | 0.05 | 99 | 1010.1 | |
| 20260509184556 | 20 | 0.0 | 1.6 | 0.00 | 0.00 | 0.05 | 99 | 1010.2 | |
| 20260509184041 | 20 | 0.0 | 0.0 | 0.00 | 0.00 | 0.05 | 99 | 1010.1 | |
| 20260509183535 | 20 | 0.0 | 1.6 | 0.00 | 0.00 | 0.05 | 99 | 1010.1 | |
| 20260509183029 | 20 | 1.6 | 3.2 | 0.00 | 0.00 | 0.05 | 99 | 1010.0 | |
| 20260509182523 | 21 | 1.6 | 3.2 | 0.00 | 0.00 | 0.05 | 99 | 1010.0 | |
| 20260509182017 | 21 | 0.0 | 1.6 | 0.00 | 0.00 | 0.05 | 99 | 1009.8 | |
| 20260509181520 | 21 | 0.0 | 0.0 | 0.00 | 0.00 | 0.05 | 99 | 1009.8 | |
| 20260509181005 | 20 | 0.0 | 0.0 | 0.00 | 0.00 | 0.05 | 99 | 1009.8 | |
| 20260509180459 | 20 | 0.0 | 0.0 | 0.00 | 0.00 | 0.05 | 99 | 1009.6 | |
| 20260509175953 | 20 | 0.0 | 1.6 | 0.00 | 0.00 | 0.05 | 99 | 1009.5 | |
| 20260509175446 | 20 | 0.0 | 1.6 | 0.00 | 0.00 | 0.05 | 99 | 1009.4 | |
| 20260509174940 | 21 | 1.6 | 6.4 | 0.00 | 0.00 | 0.05 | 99 | 1009.3 | |
| 20260509174443 | 22 | 0.0 | 0.0 | 0.00 | 0.00 | 0.05 | 99 | 1009.4 | |
| 20260509173928 | 22 | 0.0 | 0.0 | 0.00 | 0.00 | 0.05 | 99 | 1009.5 | |
| 20260509173422 | 22 | 0.0 | 0.0 | 0.00 | 0.00 | 0.05 | 99 | 1009.4 | |
| 20260509172916 | 22 | 1.6 | 3.2 | 0.00 | 0.00 | 0.05 | 99 | 1009.4 | |
| 20260509172410 | 22 | 1.6 | 3.2 | 0.00 | 0.00 | 0.05 | 99 | 1009.3 | |
| 20260509171904 | 22 | 1.6 | 3.2 | 0.00 | 0.00 | 0.05 | 99 | 1009.4 | |
| 20260509171407 | 22 | 0.0 | 1.6 | 0.00 | 0.00 | 0.05 | 99 | 1009.4 | |
| 20260509170852 | 22 | 0.0 | 1.6 | 0.00 | 0.00 | 0.05 | 99 | 1009.5 | |
| 20260509170346 | 22 | 1.6 | 3.2 | 0.00 | 0.00 | 0.05 | 99 | 1009.5 | |
| 20260509165839 | 22 | 1.6 | 3.2 | 0.00 | 0.00 | 0.05 | 99 | 1009.4 | |
| 20260509165333 | 22 | 1.6 | 6.4 | 0.00 | 0.00 | 0.05 | 99 | 1009.3 | |
| 20260509164828 | 22 | 4.8 | 12.9 | 0.00 | 0.00 | 0.05 | 99 | 1009.4 | |
| 20260509164330 | 22 | 4.8 | 12.9 | 0.00 | 0.00 | 0.05 | 99 | 1009.5 | |
| 20260509163815 | 22 | 3.2 | 9.7 | 0.00 | 0.00 | 0.05 | 99 | 1009.5 | |
| 20260509163310 | 22 | 1.6 | 6.4 | 0.00 | 0.00 | 0.05 | 99 | 1009.5 | |
| 20260509162805 | 22 | 1.6 | 3.2 | 0.00 | 0.00 | 0.05 | 99 | 1009.5 | |
| 20260509162258 | 23 | 3.2 | 9.7 | 0.00 | 0.00 | 0.05 | 99 | 1009.5 | |
| 20260509161751 | 23 | 4.8 | 14.5 | 0.00 | 0.00 | 0.05 | 99 | 1009.5 | |
| 20260509161253 | 23 | 3.2 | 11.3 | 0.00 | 0.00 | 0.05 | 99 | 1009.5 | |
| 20260509160738 | 24 | 1.6 | 3.2 | 0.00 | 0.00 | 0.05 | 99 | 1009.6 | |
| 20260509160232 | 23 | 1.6 | 4.8 | 0.00 | 0.00 | 0.05 | 99 | 1009.7 | |
| 20260509155725 | 23 | 0.0 | 0.0 | 0.00 | 0.00 | 0.05 | 99 | 1009.7 | |
| 20260509155220 | 24 | 0.0 | 0.0 | 0.00 | 0.00 | 0.05 | 99 | 1009.7 | |
| 20260509154714 | 25 | 0.0 | 0.0 | 0.00 | 0.00 | 0.05 | 99 | 1009.7 | |
| 20260509154216 | 25 | 0.0 | 0.0 | 0.00 | 0.00 | 0.05 | 99 | 1009.6 | |
| 20260509153701 | 25 | 0.0 | 1.6 | 0.00 | 0.00 | 0.05 | 99 | 1009.6 | |
| 20260509153155 | 26 | 1.6 | 4.8 | 0.00 | 0.00 | 0.05 | 99 | 1009.5 | |
| 20260509152649 | 26 | 1.6 | 6.4 | 0.00 | 0.00 | 0.05 | 99 | 1009.7 | |
| 20260509152143 | 26 | 0.0 | 1.6 | 0.00 | 0.00 | 0.05 | 99 | 1009.7 | |
| 20260509151637 | 26 | 3.2 | 9.7 | 0.00 | 0.00 | 0.05 | 99 | 1009.7 | |
| 20260509151139 | 27 | 0.0 | 1.6 | 0.00 | 0.00 | 0.05 | 99 | 1009.7 | |
| 20260509150624 | 27 | 1.6 | 3.2 | 0.00 | 0.00 | 0.05 | 99 | 1009.9 | |
| 20260509150118 | 27 | 0.0 | 0.0 | 0.00 | 0.00 | 0.05 | 99 | 1009.9 | |
| 20260509145612 | 26 | 1.6 | 6.4 | 0.00 | 0.00 | 0.05 | 99 | 1010.0 | |
| 20260509145106 | 26 | 1.6 | 4.8 | 0.00 | 0.00 | 0.05 | 99 | 1010.0 | |
| 20260509144600 | 24 | 0.0 | 0.0 | 0.00 | 0.00 | 0.05 | 99 | 1010.0 | |
| 20260509144102 | 25 | 0.0 | 1.6 | 0.00 | 0.00 | 0.05 | 99 | 1010.1 | |
| 20260509143041 | 22 | 0.0 | 0.0 | 0.00 | 0.00 | 0.05 | 99 | 1010.1 | |
| 20260509142535 | 22 | 1.6 | 4.8 | 0.00 | 0.00 | 0.05 | 99 | 1010.0 | |
| 20260509142029 | 23 | 0.0 | 0.0 | 0.00 | 0.00 | 0.05 | 99 | 1010.0 | |
| 20260509141523 | 23 | 1.6 | 6.4 | 0.00 | 0.00 | 0.05 | 99 | 1010.0 | |
| 20260509141026 | 22 | 1.6 | 6.4 | 0.00 | 0.00 | 0.05 | 99 | 1010.1 | |
| 20260509140510 | 22 | 1.6 | 4.8 | 0.00 | 0.00 | 0.05 | 99 | 1010.0 | |
| 20260509140006 | 22 | 1.6 | 6.4 | 0.00 | 0.00 | 0.05 | 99 | 1010.1 | |
| 20260509135458 | 21 | 1.6 | 4.8 | 0.00 | 0.00 | 0.05 | 99 | 1010.1 | |
| 20260509134952 | 22 | 3.2 | 11.3 | 0.00 | 0.00 | 0.05 | 99 | 1010.2 | |
| 20260509134446 | 22 | 1.6 | 4.8 | 0.00 | 0.00 | 0.05 | 99 | 1010.2 | |
| 20260509133948 | 23 | 1.6 | 4.8 | 0.00 | 0.00 | 0.05 | 99 | 1010.3 | |
| 20260509133433 | 23 | 0.0 | 1.6 | 0.00 | 0.00 | 0.05 | 99 | 1010.3 | |
| 20260509132928 | 23 | 0.0 | 1.6 | 0.00 | 0.00 | 0.05 | 99 | 1010.4 | |
| 20260509132422 | 23 | 1.6 | 3.2 | 0.00 | 0.00 | 0.05 | 99 | 1010.4 | |
| 20260509131916 | 22 | 0.0 | 1.6 | 0.00 | 0.00 | 0.05 | 99 | 1010.4 | |
| 20260509131410 | 22 | 1.6 | 6.4 | 0.00 | 0.00 | 0.05 | 99 | 1010.4 | |
| 20260509130912 | 23 | 1.6 | 4.8 | 0.00 | 0.00 | 0.05 | 99 | 1010.3 | |
| 20260509130358 | 23 | 1.6 | 4.8 | 0.00 | 0.00 | 0.05 | 99 | 1010.2 | |
| 20260509125852 | 23 | 0.0 | 0.0 | 0.00 | 0.00 | 0.05 | 99 | 1010.3 | |
| 20260509125345 | 23 | 0.0 | 1.6 | 0.00 | 0.00 | 0.05 | 99 | 1010.4 | |
| 20260509124839 | 23 | 0.0 | 1.6 | 0.00 | 0.00 | 0.05 | 99 | 1010.4 | |
| 20260509124333 | 23 | 1.6 | 4.8 | 0.00 | 0.00 | 0.05 | 99 | 1010.5 | |
| 20260509123836 | 23 | 1.6 | 3.2 | 0.00 | 0.00 | 0.05 | 99 | 1010.5 | |
| 20260509123321 | 23 | 1.6 | 6.4 | 0.00 | 0.00 | 0.05 | 99 | 1010.6 | |
| 20260509122815 | 22 | 3.2 | 9.7 | 0.00 | 0.00 | 0.05 | 99 | 1010.6 | |
| 20260509122309 | 23 | 3.2 | 11.3 | 0.00 | 0.00 | 0.05 | 99 | 1010.8 | |
| 20260509121803 | 23 | 1.6 | 4.8 | 0.00 | 0.00 | 0.05 | 99 | 1010.8 | |
| 20260509121257 | 24 | 3.2 | 8.0 | 0.00 | 0.00 | 0.05 | 99 | 1010.9 | |
| 20260509120800 | 23 | 0.0 | 1.6 | 0.00 | 0.00 | 0.05 | 99 | 1010.9 | |
| 20260509120245 | 23 | 1.6 | 3.2 | 0.00 | 0.00 | 0.05 | 99 | 1011.0 | |
| 20260509115738 | 23 | 0.0 | 1.6 | 0.05 | 0.00 | 0.05 | 99 | 1011.1 | |
| 20260509115232 | 23 | 1.6 | 4.8 | 0.05 | 0.00 | 0.05 | 99 | 1011.1 | |
| 20260509114726 | 23 | 1.6 | 4.8 | 0.05 | 0.00 | 0.05 | 99 | 1011.1 | |
| 20260509114220 | 23 | 3.2 | 8.0 | 0.05 | 0.00 | 0.05 | 99 | 1011.2 | |
| 20260509113723 | 23 | 3.2 | 8.0 | 0.05 | 0.00 | 0.05 | 99 | 1011.2 | |
| 20260509113208 | 22 | 0.0 | 1.6 | 0.05 | 0.00 | 0.05 | 99 | 1011.2 | |
| 20260509112701 | 23 | 1.6 | 4.8 | 0.05 | 0.00 | 0.05 | 99 | 1011.2 | |
| 20260509112155 | 22 | 1.6 | 3.2 | 0.00 | 0.00 | 0.00 | 99 | 1011.2 | |
| 20260509111649 | 22 | 1.6 | 3.2 | 0.00 | 0.00 | 0.00 | 99 | 1011.2 | |
| 20260509111143 | 23 | 1.6 | 6.4 | 0.00 | 0.00 | 0.00 | 99 | 1011.2 | |
| 20260509110646 | 22 | 0.0 | 1.6 | 0.00 | 0.00 | 0.00 | 99 | 1011.2 | |
| 20260509110131 | 23 | 3.2 | 8.0 | 0.00 | 0.00 | 0.00 | 99 | 1011.1 | |
| 20260509105624 | 23 | 1.6 | 4.8 | 0.00 | 0.00 | 0.00 | 99 | 1011.1 | |
| 20260509105118 | 22 | 1.6 | 4.8 | 0.00 | 0.00 | 0.00 | 99 | 1011.0 | |
| 20260509104612 | 22 | 1.6 | 6.4 | 0.00 | 0.00 | 0.00 | 99 | 1011.1 | |
| 20260509104108 | 22 | 4.8 | 12.9 | 0.00 | 0.00 | 0.00 | 99 | 1011.1 | |
| 20260509103608 | 22 | 3.2 | 11.3 | 0.00 | 0.00 | 0.00 | 99 | 1011.0 | |
| 20260509103053 | 22 | 4.8 | 16.1 | 0.00 | 0.00 | 0.00 | 99 | 1011.0 | |
| 20260509102548 | 22 | 6.4 | 17.7 | 0.00 | 0.00 | 0.00 | 99 | 1010.9 | |
| 20260509102042 | 22 | 3.2 | 11.3 | 0.00 | 0.00 | 0.00 | 99 | 1011.0 | |
| 20260509101536 | 22 | 3.2 | 8.0 | 0.00 | 0.00 | 0.00 | 99 | 1011.0 | |
| 20260509101030 | 23 | 3.2 | 9.7 | 0.00 | 0.00 | 0.00 | 99 | 1011.0 | |
| 20260509100532 | 23 | 4.8 | 12.9 | 0.00 | 0.00 | 0.00 | 99 | 1011.1 | |
| 20260509100018 | 23 | 4.8 | 12.9 | 0.00 | 0.00 | 0.00 | 99 | 1011.1 | |
| 20260509095511 | 22 | 3.2 | 9.7 | 0.00 | 0.00 | 0.00 | 99 | 1011.1 | |
| 20260509095005 | 22 | 1.6 | 6.4 | 0.00 | 0.00 | 0.00 | 99 | 1011.1 | |
| 20260509094458 | 21 | 3.2 | 8.0 | 0.00 | 0.00 | 0.00 | 99 | 1011.2 | |
| 20260509093953 | 20 | 3.2 | 9.7 | 0.00 | 0.00 | 0.00 | 99 | 1011.3 | |
| 20260509093455 | 21 | 3.2 | 8.0 | 0.00 | 0.00 | 0.00 | 99 | 1011.3 | |
| 20260509092940 | 21 | 1.6 | 3.2 | 0.00 | 0.00 | 0.00 | 99 | 1011.3 | |
| 20260509092434 | 20 | 1.6 | 4.8 | 0.00 | 0.00 | 0.00 | 99 | 1011.4 | |
| 20260509091928 | 20 | 1.6 | 4.8 | 0.00 | 0.00 | 0.00 | 99 | 1011.4 | |
| 20260509091423 | 20 | 3.2 | 8.0 | 0.00 | 0.00 | 0.00 | 99 | 1011.5 | |
| 20260509090917 | 20 | 1.6 | 3.2 | 0.00 | 0.00 | 0.00 | 99 | 1011.5 | |
| 20260509090419 | 20 | 1.6 | 6.4 | 0.00 | 0.00 | 0.00 | 99 | 1011.5 | |
| 20260509085904 | 19 | 3.2 | 8.0 | 0.00 | 0.00 | 0.00 | 99 | 1011.5 | |
| 20260509085357 | 18 | 3.2 | 8.0 | 0.00 | 0.00 | 0.00 | 99 | 1011.6 | |
| 20260509084851 | 19 | 3.2 | 9.7 | 0.00 | 0.00 | 0.00 | 99 | 1011.7 | |
| 20260509084345 | 18 | 0.0 | 1.6 | 0.00 | 0.00 | 0.00 | 99 | 1011.7 | |
| 20260509083840 | 18 | 0.0 | 0.0 | 0.00 | 0.00 | 0.00 | 99 | 1011.8 | |
| 20260509083342 | 17 | 1.6 | 3.2 | 0.00 | 0.00 | 0.00 | 99 | 1011.8 | |
| 20260509082828 | 17 | 3.2 | 11.3 | 0.00 | 0.00 | 0.00 | 99 | 1011.8 | |
| 20260509082322 | 17 | 4.8 | 12.9 | 0.00 | 0.00 | 0.00 | 99 | 1011.7 | |
| 20260509081816 | 17 | 3.2 | 11.3 | 0.00 | 0.00 | 0.00 | 99 | 1011.8 | |
| 20260509081309 | 17 | 1.6 | 3.2 | 0.00 | 0.00 | 0.00 | 99 | 1011.9 | |
| 20260509080803 | 17 | 1.6 | 6.4 | 0.00 | 0.00 | 0.00 | 99 | 1012.0 | |
| 20260509080306 | 17 | 1.6 | 4.8 | 0.00 | 0.00 | 0.00 | 99 | 1012.1 | |
| 20260509075750 | 17 | 1.6 | 6.4 | 0.00 | 0.00 | 0.00 | 99 | 1012.2 | |
| 20260509075244 | 17 | 1.6 | 6.4 | 0.00 | 0.00 | 0.00 | 99 | 1012.2 | |
| 20260509074738 | 18 | 4.8 | 12.9 | 0.00 | 0.00 | 0.00 | 99 | 1012.3 | |
| 20260509074232 | 18 | 3.2 | 9.7 | 0.00 | 0.00 | 0.00 | 99 | 1012.3 | |
| 20260509073726 | 18 | 1.6 | 6.4 | 0.00 | 0.00 | 0.00 | 99 | 1012.2 | |
| 20260509073227 | 16 | 0.0 | 1.6 | 0.00 | 0.00 | 0.00 | 99 | 1012.1 | |
| 20260509072713 | 15 | 0.0 | 0.0 | 0.00 | 0.00 | 0.00 | 99 | 1012.1 | |
| 20260509072207 | 15 | 0.0 | 0.0 | 0.00 | 0.00 | 0.00 | 99 | 1012.2 | |
| 20260509071701 | 14 | 0.0 | 0.0 | 0.00 | 0.00 | 0.00 | 99 | 1012.1 | |
| 20260509071155 | 14 | 0.0 | 1.6 | 0.00 | 0.00 | 0.00 | 99 | 1012.0 | |
| 20260509070649 | 13 | 0.0 | 0.0 | 0.00 | 0.00 | 0.00 | 99 | 1011.9 | |
| 20260509070152 | 13 | 0.0 | 1.6 | 0.00 | 0.00 | 0.00 | 99 | 1011.9 |